TimeCDT,TemperatureF,Dew PointF,Humidity,Sea Level PressureIn,VisibilityMPH,Wind Direction,Wind SpeedMPH,Gust SpeedMPH,PrecipitationIn,Events,Conditions,WindDirDegrees,DateUTC
12:15 AM,52.7,46.0,78,30.04,7.0,SE,3.5,-,N/A,,Clear,140,2013-10-11 05:15:00
12:35 AM,51.4,45.0,79,30.04,7.0,Calm,Calm,-,N/A,,Clear,0,2013-10-11 05:35:00
12:55 AM,51.8,43.7,74,30.04,7.0,Calm,Calm,-,N/A,,Clear,0,2013-10-11 05:55:00
1:15 AM,51.8,43.5,73,30.04,7.0,Calm,Calm,-,N/A,,Clear,0,2013-10-11 06:15:00
1:55 AM,51.3,43.0,73,30.04,7.0,Calm,Calm,-,N/A,,Clear,0,2013-10-11 06:55:00
2:15 AM,50.9,43.0,74,30.04,7.0,Calm,Calm,-,N/A,,Clear,0,2013-10-11 07:15:00
2:35 AM,50.9,44.6,79,30.03,7.0,Calm,Calm,-,N/A,,Clear,0,2013-10-11 07:35:00
2:55 AM,50.2,43.7,78,30.03,7.0,Calm,Calm,-,N/A,,Clear,0,2013-10-11 07:55:00
3:15 AM,50.2,43.2,77,30.03,5.0,Calm,Calm,-,N/A,,Haze,0,2013-10-11 08:15:00
3:35 AM,49.6,41.0,72,30.03,5.0,Calm,Calm,-,N/A,,Haze,0,2013-10-11 08:35:00
3:55 AM,49.1,41.7,76,30.04,5.0,East,3.5,-,N/A,,Haze,80,2013-10-11 08:55:00
4:15 AM,48.6,41.7,77,30.04,5.0,Calm,Calm,-,N/A,,Haze,0,2013-10-11 09:15:00
4:35 AM,47.7,41.7,80,30.05,4.0,Calm,Calm,-,N/A,,Haze,0,2013-10-11 09:35:00
4:55 AM,46.8,41.0,80,30.06,4.0,Calm,Calm,-,N/A,,Haze,0,2013-10-11 09:55:00
5:15 AM,47.3,41.4,80,30.06,5.0,Calm,Calm,-,N/A,,Haze,0,2013-10-11 10:15:00
5:35 AM,47.3,41.5,80,30.07,7.0,Calm,Calm,-,N/A,,Clear,0,2013-10-11 10:35:00
5:55 AM,47.8,44.1,87,30.08,7.0,Calm,Calm,-,N/A,,Clear,0,2013-10-11 10:55:00
6:15 AM,46.0,41.7,85,30.08,2.0,Calm,Calm,-,N/A,,Clear,0,2013-10-11 11:15:00
6:35 AM,46.8,41.7,83,30.08,4.0,Calm,Calm,-,N/A,,Haze,0,2013-10-11 11:35:00
6:55 AM,47.3,41.4,80,30.08,5.0,Calm,Calm,-,N/A,,Haze,0,2013-10-11 11:55:00
7:15 AM,47.5,41.4,79,30.08,4.0,Calm,Calm,-,N/A,,Haze,0,2013-10-11 12:15:00
7:35 AM,49.1,44.2,83,30.08,5.0,Calm,Calm,-,N/A,,Haze,0,2013-10-11 12:35:00
7:55 AM,50.4,44.2,80,30.07,5.0,Calm,Calm,-,N/A,,Haze,0,2013-10-11 12:55:00
8:15 AM,52.7,46.9,81,30.07,7.0,Calm,Calm,-,N/A,,Clear,0,2013-10-11 13:15:00
8:35 AM,55.2,50.5,84,30.07,7.0,East,3.5,-,N/A,,Clear,100,2013-10-11 13:35:00
8:55 AM,58.6,54.3,86,30.06,10.0,ESE,3.5,-,N/A,,Clear,120,2013-10-11 13:55:00
9:15 AM,61.7,57.6,86,30.07,10.0,SE,3.5,-,N/A,,Clear,130,2013-10-11 14:15:00
9:35 AM,63.9,56.5,77,30.07,10.0,South,3.5,-,N/A,,Clear,170,2013-10-11 14:35:00
9:55 AM,66.0,54.9,67,30.07,10.0,SSE,3.5,-,N/A,,Clear,150,2013-10-11 14:55:00
10:15 AM,68.4,53.4,59,30.07,10.0,SSW,4.6,-,N/A,,Clear,200,2013-10-11 15:15:00
10:35 AM,70.3,52.7,53,30.07,10.0,SSW,3.5,-,N/A,,Clear,200,2013-10-11 15:35:00
10:55 AM,71.8,52.5,51,30.07,7.0,SSW,5.8,-,N/A,,Clear,200,2013-10-11 15:55:00
11:15 AM,73.2,50.5,45,30.06,7.0,SSE,6.9,-,N/A,,Clear,160,2013-10-11 16:15:00
11:35 AM,73.8,47.1,39,30.06,5.0,South,6.9,-,N/A,,Haze,170,2013-10-11 16:35:00
11:55 AM,74.3,49.5,41,30.06,7.0,SW,3.5,-,N/A,,Clear,230,2013-10-11 16:55:00
12:15 PM,75.7,49.3,39,30.05,5.0,South,9.2,-,N/A,,Haze,180,2013-10-11 17:15:00
12:35 PM,77.2,49.5,38,30.04,10.0,SE,9.2,-,N/A,,Clear,140,2013-10-11 17:35:00
12:55 PM,77.2,49.1,37,30.04,10.0,SSW,4.6,-,N/A,,Clear,200,2013-10-11 17:55:00
1:15 PM,78.6,50.7,38,30.02,10.0,SSE,4.6,-,N/A,,Clear,160,2013-10-11 18:15:00
1:35 PM,78.3,49.5,36,30.01,10.0,SE,8.1,-,N/A,,Clear,140,2013-10-11 18:35:00
1:55 PM,77.4,49.6,38,30.00,7.0,SSE,4.6,-,N/A,,Clear,150,2013-10-11 18:55:00
2:15 PM,77.7,49.5,37,30.00,7.0,SE,6.9,-,N/A,,Clear,140,2013-10-11 19:15:00
2:35 PM,78.1,50.2,38,29.99,7.0,SSE,8.1,-,N/A,,Clear,160,2013-10-11 19:35:00
2:55 PM,79.2,52.2,39,29.99,7.0,SSE,5.8,-,N/A,,Clear,150,2013-10-11 19:55:00
3:15 PM,78.8,50.5,37,29.99,7.0,SSE,6.9,-,N/A,,Clear,160,2013-10-11 20:15:00
3:35 PM,77.9,50.0,38,29.99,5.0,SE,5.8,-,N/A,,Haze,130,2013-10-11 20:35:00
3:55 PM,77.9,49.6,37,29.98,4.0,SSE,8.1,-,N/A,,Haze,160,2013-10-11 20:55:00
4:15 PM,77.2,49.8,38,29.98,5.0,SSE,9.2,-,N/A,,Haze,160,2013-10-11 21:15:00
4:35 PM,77.2,49.5,38,29.98,7.0,ESE,5.8,-,N/A,,Clear,120,2013-10-11 21:35:00
4:55 PM,76.3,49.5,39,29.97,7.0,SSE,9.2,-,N/A,,Clear,150,2013-10-11 21:55:00
5:15 PM,75.2,49.3,40,29.97,7.0,SSE,6.9,-,N/A,,Clear,160,2013-10-11 22:15:00
5:35 PM,73.8,47.7,40,29.97,4.0,SE,8.1,-,N/A,,Haze,140,2013-10-11 22:35:00
5:55 PM,72.0,48.0,43,29.97,7.0,SE,5.8,-,N/A,,Clear,130,2013-10-11 22:55:00
6:15 PM,69.1,46.2,44,29.97,5.0,SE,5.8,-,N/A,,Haze,130,2013-10-11 23:15:00
6:35 PM,65.8,44.6,46,29.97,5.0,SE,5.8,-,N/A,,Haze,130,2013-10-11 23:35:00
6:55 PM,63.9,44.6,50,29.98,7.0,SE,5.8,-,N/A,,Clear,140,2013-10-11 23:55:00
7:15 PM,62.6,44.4,51,29.98,7.0,SE,6.9,-,N/A,,Clear,140,2013-10-12 00:15:00
7:35 PM,61.7,45.5,55,29.98,7.0,SE,6.9,-,N/A,,Clear,130,2013-10-12 00:35:00
7:55 PM,61.2,46.6,59,29.98,7.0,SE,5.8,-,N/A,,Clear,130,2013-10-12 00:55:00
8:15 PM,60.8,47.5,62,29.98,7.0,SE,6.9,-,N/A,,Clear,130,2013-10-12 01:15:00
8:35 PM,60.3,48.2,64,29.98,7.0,SE,6.9,-,N/A,,Clear,130,2013-10-12 01:35:00
8:55 PM,59.9,48.4,66,29.98,7.0,SE,6.9,-,N/A,,Clear,140,2013-10-12 01:55:00
9:15 PM,59.0,47.8,66,29.99,7.0,SE,5.8,-,N/A,,Clear,140,2013-10-12 02:15:00
9:35 PM,58.6,47.7,67,29.99,7.0,SE,5.8,-,N/A,,Clear,140,2013-10-12 02:35:00
9:55 PM,58.1,47.3,67,29.99,7.0,SE,5.8,-,N/A,,Clear,140,2013-10-12 02:55:00
10:15 PM,57.2,47.1,69,30.00,7.0,SSE,4.6,-,N/A,,Clear,150,2013-10-12 03:15:00
10:35 PM,57.2,46.8,68,30.00,7.0,SE,5.8,-,N/A,,Clear,140,2013-10-12 03:35:00
10:55 PM,56.8,46.9,69,30.00,7.0,SE,5.8,-,N/A,,Clear,140,2013-10-12 03:55:00
11:15 PM,56.3,46.8,70,30.00,7.0,SE,4.6,-,N/A,,Clear,140,2013-10-12 04:15:00
11:35 PM,56.3,47.1,71,30.00,10.0,SSE,5.8,-,N/A,,Clear,150,2013-10-12 04:35:00
11:55 PM,55.0,47.7,76,30.00,10.0,SE,3.5,-,N/A,,Clear,140,2013-10-12 04:55:00